STARLINK-30061

decayed
NORAD ID: 55698 Int'l Des: 2023-026 Owner: SPXS Country: US Constellation: starlink
LEOCIRCULAR
Gruppe

Über STARLINK-30061

Beschreibung wird geladen...

Höhenverlauf

Altitude vs Time

uPlot chart will show altitude changes over time

Zweizeiliger Elementsatz

1 55698U 23026D 23180.63307021 .04522902 91940-5 96414-3 0 9991
2 55698 42.9811 262.0984 0009785 8.0378 141.5101 16.29630212 20250
Epoch: 29. Juni 2023 • Age: 19500 hours

Aktueller Status

Position data unavailable
Startdatum 27. Feb. 2023
Alter 2.5 years
Verglühungsdatum 30. Juni 2023
Typ internet

Technische Details

Klassifizierung Payload
Masse 730.00 kg
Trockenmasse 700.00 kg
Gesamtmasse 730.00 kg
Länge 0.30 m
Durchmesser 4.10 m
Spannweite 29.00 m
Form Box + pan
Hersteller SPXS
Bus-Typ Starlink V2M
Phasenstatus Reentered
Besitzer/Staat SPXS/US

Große Konstellationen

Loading constellations...